Temp
72 71 73 73 74 75 74 73 74 75 77 77 75 74 73 73 74 71 71 70 68 69 69 74 77 77 78 78 77 77 77 76 74 73 72 74 71 73 76 74 73 73 74 72 72 67 60 56 55 60 63 63 64 66 70 73 73 72 71 72 73 72 71
74 74 75 75 75 74 73 74 74 76 76 76 77 76 74 73 73 72 71 71 69 68 69 67 70 77 75 73 71 75 74 74 74 75 73 72 73 72 72 71 72 72 73 73 72 73 65 59 57 57 57 61 63 64 67 71 73 72 72 71 72 72 69
74 74 75 74 74 74 73 73 73 74 75 75 75 77 76 76 74 73 74 73 71 71 70 69 68 70 72 69 70 69 74 73 74 74 73 74 74 74 74 72 70 70 71 70 70 70 68 67 61 59 59 58 58 62 66 67 70 72 73 71 71 71 70
73 72 71 71 73 72 71 72 73 73 74 74 75 74 75 76 75 75 74 73 73 72 72 71 70 67 68 69 68 69 69 69 72 74 73 73 73 73 73 73 72 70 70 69 70 70 68 65 64 62 61 61 63 61 64 67 68 70 72 71 70 69 69
73 73 71 71 72 73 72 71 73 73 73 74 73 74 73 76 74 74 73 73 73 72 71 71 70 68 65 66 66 68 67 68 71 73 73 72 72 73 72 73 73 73 72 72 73 72 69 65 64 60 58 63 64 65 64 64 69 71 72 71 70 69 69
72 72 72 71 72 71 72 71 71 71 72 72 72 72 73 73 74 72 72 72 72 71 71 72 71 71 67 65 66 67 66 67 65 71 71 71 72 71 72 73 73 74 72 73 72 71 71 66 61 61 65 65 63 61 63 63 64 69 71 70 71 71 71
72 72 72 72 71 72 72 71 71 71 71 70 71 72 73 74 74 74 73 73 73 73 72 72 73 72 67 66 67 66 67 66 65 70 72 72 72 72 73 73 73 73 73 71 73 72 69 66 66 64 65 66 64 61 62 65 67 67 68 71 72 72 72
72 72 72 72 71 71 71 71 71 72 72 72 73 73 75 74 73 73 73 73 73 72 72 71 71 70 69 68 68 69 67 64 63 67 71 72 72 72 72 72 72 72 72 73 74 73 74 72 69 66 66 62 62 61 60 66 68 69 67 70 72 72 72
71 71 71 72 72 71 71 71 71 71 72 72 72 73 74 74 73 73 73 73 73 72 72 72 71 70 68 66 66 68 66 63 63 66 66 70 71 71 71 72 72 73 73 72 73 73 74 73 73 72 70 68 62 58 62 63 64 67 69 66 70 71 71
70 70 70 70 71 72 71 71 72 72 72 72 72 73 72 74 74 73 73 73 73 73 72 72 71 70 69 67 65 64 64 64 64 65 66 67 65 67 69 71 72 72 71 71 72 73 73 73 74 73 73 69 68 63 61 62 62 65 66 68 65 68 72
70 70 70 71 71 71 71 71 71 71 72 72 73 73 72 73 73 73 73 73 73 72 72 72 72 71 70 68 65 64 64 63 62 62 63 64 66 68 69 70 72 71 72 71 71 71 72 73 73 73 72 72 71 66 65 62 61 66 64 67 68 66 69
70 70 70 71 70 71 71 71 71 71 71 72 72 72 72 72 72 72 73 72 72 72 72 72 71 71 69 67 65 65 65 64 62 62 63 63 63 66 69 69 70 71 71 70 71 72 72 72 72 73 72 72 71 70 68 67 61 66 68 64 68 70 67
71 71 70 70 69 70 71 71 71 70 70 72 72 72 73 73 72 72 73 72 72 72 72 72 71 70 69 67 66 64 64 64 63 62 62 62 63 66 68 69 70 71 72 71 71 70 71 72 72 72 73 72 71 71 70 68 64 62 68 68 68 69 70
68 70 69 69 68 69 69 69 70 70 71 70 71 71 72 72 72 72 73 72 72 72 71 70 64 64 66 65 65 65 67 66 65 62 61 60 61 64 68 69 70 71 72 71 70 71 71 71 72 72 73 72 70 71 70 68 64 63 67 70 69 69 70
68 68 67 67 67 68 68 68 69 70 69 70 71 71 71 71 72 72 73 72 71 71 70 70 69 68 65 63 62 63 63 64 63 61 60 59 60 63 66 67 68 70 72 72 71 71 72 72 72 72 72 71 71 70 71 69 66 64 62 67 67 70 68
67 66 66 66 66 67 67 68 70 68 69 69 71 71 70 71 71 73 72 71 71 70 68 66 62 61 60 63 63 62 61 62 62 60 59 58 60 63 65 66 67 69 70 70 70 70 70 71 72 72 71 72 71 70 71 71 68 65 64 65 67 67 66
65 65 65 66 65 66 67 68 69 68 69 69 70 69 71 72 71 71 71 71 70 69 69 67 65 61 61 61 60 62 64 62 60 61 60 60 60 61 64 65 66 67 68 69 70 70 70 71 71 71 71 71 71 71 71 71 70 68 66 64 65 68 67
64 64 64 65 65 66 67 67 68 69 69 69 69 69 70 71 70 71 69 70 70 69 67 65 63 60 58 60 60 60 61 60 59 59 59 58 59 60 62 63 66 67 69 68 69 69 70 69 72 71 71 72 72 71 71 71 70 70 67 65 64 68 69
63 64 64 64 65 66 66 67 68 68 69 69 69 69 69 69 69 70 71 71 71 70 68 64 63 58 56 58 60 60 59 59 58 58 58 58 59 61 61 62 64 67 69 68 68 69 70 69 70 71 71 72 72 71 70 70 69 68 67 64 64 65 67
63 64 64 64 65 66 67 66 67 68 68 68 68 68 69 69 69 69 70 70 70 68 66 62 59 57 56 58 61 61 58 57 58 59 58 58 59 60 62 64 65 66 67 69 69 69 70 69 70 70 70 71 72 71 69 69 69 67 66 65 66 67 67
64 64 64 65 65 65 66 66 66 67 67 67 67 68 68 68 68 69 69 69 68 68 65 60 58 55 54 57 61 63 56 56 56 56 57 58 58 60 61 63 65 66 67 69 70 71 70 69 70 69 70 71 71 70 69 69 68 67 66 67 67 67 68
65 65 65 64 64 64 65 65 65 66 66 66 66 67 67 68 68 68 69 68 68 67 62 57 54 51 50 52 57 61 56 54 55 55 56 58 59 60 62 64 66 68 66 62 58 60 61 62 68 69 69 70 70 69 68 68 69 69 70 69 68 68 67
64 64 63 63 63 64 64 64 64 64 65 65 65 65 66 67 67 67 67 68 67 65 60 55 50 46 46 48 52 59 59 55 54 54 55 55 57 59 61 64 65 61 60 58 56 53 51 52 54 61 66 69 70 69 68 68 69 70 69 68 68 67 66
64 63 62 63 62 63 63 63 63 63 63 63 63 64 64 65 65 65 65 65 65 64 60 53 45 43 43 44 49 57 62 60 56 54 55 55 57 60 63 65 67 63 63 61 58 48 49 49 49 50 51 52 57 65 67 67 69 70 69 69 69 68 68
63 62 62 62 62 63 62 62 62 62 61 61 62 63 63 63 64 64 64 64 64 63 60 48 43 43 43 42 45 52 62 60 58 54 54 55 58 61 62 64 66 67 68 67 68 64 58 49 48 47 47 50 51 48 49 60 67 69 69 69 68 68 69
62 61 61 61 61 61 61 60 60 60 59 60 61 61 62 62 63 63 63 64 63 63 59 47 43 43 43 41 42 47 62 60 58 56 54 55 56 60 62 63 65 67 69 62 66 69 68 63 52 48 50 51 51 49 44 43 46 61 70 70 69 68 69
60 60 60 60 60 60 59 58 58 59 59 59 59 59 60 60 61 62 62 63 62 62 58 48 43 43 42 41 41 44 60 60 58 57 57 56 56 59 62 64 66 66 67 67 67 67 67 67 67 66 66 68 68 59 50 50 52 50 60 69 70 69 70
59 59 60 59 59 59 58 58 58 59 59 59 59 59 59 60 60 62 62 61 60 59 57 44 43 42 42 41 40 47 57 58 59 57 55 55 55 58 63 65 65 66 66 66 66 64 66 66 67 67 67 67 68 69 68 67 68 69 69 69 69 69 70
58 59 59 59 58 58 58 58 57 57 58 59 60 60 60 62 61 62 61 60 58 57 57 44 43 43 42 41 42 53 54 56 58 58 54 54 54 57 62 65 66 66 67 66 57 46 55 66 67 67 66 66 66 66 63 53 43 46 56 64 67 67 67
57 58 58 57 57 56 56 56 55 56 56 58 58 59 59 59 60 60 58 57 55 55 56 49 43 43 42 41 44 51 52 54 57 57 54 53 53 56 61 64 66 67 66 67 51 45 48 53 67 66 66 66 66 67 64 60 46 41 39 40 40 40 41
57 57 58 57 56 56 56 55 54 55 54 56 57 58 59 59 59 59 57 56 55 54 55 52 44 43 42 41 44 48 49 53 55 55 55 54 54 54 57 58 58 64 66 65 42 44 45 55 66 66 66 65 65 65 65 66 66 57 40 40 40 40 41
57 57 57 56 55 55 54 53 53 54 54 56 57 59 59 59 59 60 59 57 55 54 54 53 46 42 42 41 43 47 48 50 51 53 55 54 53 52 55 59 58 57 60 55 38 45 41 52 66 65 65 65 65 65 65 67 66 65 65 65 62 61 57
57 57 57 57 56 54 54 53 53 53 53 55 55 57 58 58 58 58 58 58 56 55 54 54 52 42 42 41 41 45 47 47 48 50 55 57 51 51 52 58 60 45 41 39 41 40 44 40 61 66 66 66 65 62 66 66 66 69 68 68 67 67 66
57 57 58 56 56 54 54 53 52 52 52 53 53 54 55 56 57 57 58 58 58 57 55 54 53 44 42 41 41 42 46 45 47 49 54 57 55 51 50 53 61 46 42 40 41 40 43 42 46 64 63 63 60 57 58 66 63 62 68 67 67 67 67
57 58 57 56 55 54 54 54 53 51 52 52 52 53 55 55 55 55 57 58 57 56 55 52 52 46 42 41 41 41 44 45 45 49 55 56 54 53 50 51 57 48 40 41 40 41 39 43 39 63 56 44 40 43 61 67 66 67 68 68 69 68 69
57 59 57 57 56 54 54 54 53 52 51 51 51 52 53 53 52 52 53 55 55 55 55 55 47 47 43 41 40 41 40 43 41 51 55 54 53 53 52 50 53 46 39 40 40 40 41 37 48 55 38 42 48 43 51 68 68 68 68 69 68 67 67
58 57 58 59 58 56 54 53 52 51 51 51 51 51 51 50 49 49 50 51 53 54 54 53 49 44 44 41 41 41 41 41 41 47 54 56 55 53 50 47 45 39 38 39 39 40 39 44 53 38 41 40 41 46 65 66 66 67 65 66 66 66 67
MSLP
1021.01 1020.89 1020.41 1020.09 1019.77 1019.45 1019.25 1019.05 1018.69 1018.37 1018.05 1017.85 1017.77 1017.81 1017.53 1017.21 1016.93 1016.93 1016.77 1016.57 1016.53 1016.29 1015.93 1015.13 1014.65 1014.53 1014.37 1014.21 1014.05 1014.13 1014.25 1014.37 1014.49 1014.61 1014.73 1014.45 1014.65 1014.29 1013.89 1014.13 1014.33 1014.25 1014.21 1014.41 1014.33 1014.97 1016.25 1017.29 1017.97 1017.65 1017.53 1017.69 1017.69 1017.49 1017.01 1016.73 1016.77 1016.93 1016.97 1016.93 1017.05 1017.33 1017.53
1020.89 1020.73 1020.33 1020.09 1019.93 1019.65 1019.49 1019.17 1018.93 1018.53 1018.21 1017.93 1017.69 1017.49 1017.33 1017.21 1016.81 1016.65 1016.45 1016.21 1016.21 1016.09 1015.97 1016.01 1015.33 1014.29 1014.41 1014.57 1014.53 1014.29 1014.41 1014.37 1014.37 1014.13 1014.29 1014.53 1014.33 1014.33 1014.29 1014.29 1014.29 1014.33 1014.25 1014.21 1014.33 1014.25 1015.05 1016.29 1017.05 1017.49 1017.73 1017.73 1017.73 1017.77 1017.49 1017.13 1016.97 1017.01 1017.09 1017.17 1017.29 1017.49 1017.69
1021.05 1020.81 1020.53 1020.41 1020.09 1019.85 1019.69 1019.45 1019.13 1018.81 1018.49 1018.13 1017.85 1017.53 1017.29 1017.01 1016.85 1016.57 1016.25 1016.05 1015.85 1015.53 1015.41 1015.25 1015.37 1015.01 1014.65 1014.93 1014.69 1014.73 1014.17 1014.33 1014.21 1014.17 1014.21 1014.13 1014.13 1014.05 1014.09 1014.13 1014.41 1014.49 1014.45 1014.45 1014.49 1014.45 1014.53 1014.61 1015.81 1016.61 1017.05 1017.45 1017.61 1017.73 1017.69 1017.49 1017.21 1017.13 1017.13 1017.33 1017.41 1017.53 1017.61
1021.37 1021.17 1021.01 1020.77 1020.41 1020.13 1020.01 1019.73 1019.37 1019.05 1018.69 1018.41 1018.01 1017.65 1017.33 1016.97 1016.77 1016.53 1016.37 1016.13 1015.73 1015.41 1015.17 1015.05 1014.93 1015.05 1014.97 1014.81 1014.73 1014.53 1014.65 1014.73 1014.33 1014.01 1013.97 1013.97 1014.05 1014.09 1014.09 1014.05 1014.05 1014.33 1014.37 1014.37 1014.29 1014.33 1014.53 1014.77 1015.01 1015.77 1016.61 1016.89 1016.85 1017.57 1017.69 1017.61 1017.53 1017.29 1017.21 1017.37 1017.53 1017.65 1017.69
1021.61 1021.41 1021.25 1021.13 1020.77 1020.45 1020.17 1019.97 1019.53 1019.21 1018.93 1018.61 1018.25 1017.89 1017.49 1017.09 1016.81 1016.53 1016.33 1016.09 1015.73 1015.45 1015.17 1014.89 1014.77 1014.77 1015.05 1015.21 1015.01 1014.77 1014.85 1014.65 1014.25 1014.05 1013.97 1013.97 1013.93 1013.93 1013.97 1013.89 1013.85 1013.89 1014.09 1013.93 1013.65 1013.81 1014.13 1014.49 1014.73 1015.69 1016.45 1016.25 1016.61 1016.93 1017.61 1017.77 1017.41 1017.17 1017.21 1017.41 1017.61 1017.81 1017.81
1021.73 1021.57 1021.33 1021.21 1020.89 1020.61 1020.33 1020.09 1019.81 1019.53 1019.13 1018.81 1018.45 1018.13 1017.73 1017.29 1016.85 1016.57 1016.29 1016.05 1015.81 1015.45 1015.17 1014.85 1014.57 1014.41 1014.57 1014.73 1014.57 1014.65 1014.81 1014.93 1014.85 1014.05 1014.01 1013.93 1013.81 1013.85 1013.85 1013.61 1013.65 1013.57 1013.85 1013.65 1013.69 1013.89 1013.73 1014.33 1015.45 1015.57 1015.17 1015.85 1016.21 1017.25 1017.65 1017.81 1017.69 1017.33 1017.33 1017.57 1017.57 1017.53 1017.57
1021.89 1021.65 1021.49 1021.33 1021.09 1020.81 1020.49 1020.25 1019.93 1019.65 1019.33 1019.05 1018.57 1018.21 1017.73 1017.29 1016.97 1016.61 1016.25 1015.97 1015.69 1015.37 1015.09 1014.89 1014.57 1014.33 1014.41 1014.21 1014.05 1014.01 1014.01 1014.41 1014.49 1014.05 1013.73 1013.73 1013.69 1013.65 1013.49 1013.53 1013.57 1013.53 1013.61 1013.77 1013.45 1013.65 1014.01 1014.45 1014.49 1014.85 1015.25 1015.77 1016.29 1016.97 1017.45 1017.45 1017.25 1017.29 1017.49 1017.33 1017.45 1017.41 1017.45
1022.21 1021.97 1021.77 1021.57 1021.33 1021.05 1020.69 1020.41 1020.09 1019.73 1019.45 1019.05 1018.61 1018.17 1017.69 1017.37 1017.05 1016.65 1016.33 1015.97 1015.61 1015.33 1015.05 1014.85 1014.65 1014.45 1014.25 1014.17 1013.85 1013.57 1013.73 1013.89 1014.41 1014.25 1013.77 1013.57 1013.61 1013.53 1013.53 1013.53 1013.53 1013.57 1013.61 1013.57 1013.41 1013.49 1013.37 1013.57 1014.09 1014.57 1014.93 1015.89 1016.41 1017.01 1017.25 1016.93 1016.85 1016.65 1017.17 1017.29 1017.25 1017.29 1017.41
1022.53 1022.29 1022.05 1021.77 1021.45 1021.13 1020.81 1020.53 1020.17 1019.85 1019.45 1019.05 1018.61 1018.21 1017.81 1017.37 1017.05 1016.73 1016.33 1016.01 1015.61 1015.33 1015.01 1014.69 1014.49 1014.33 1014.25 1014.21 1013.93 1013.81 1013.97 1014.05 1014.45 1014.29 1014.09 1013.61 1013.57 1013.49 1013.41 1013.37 1013.49 1013.45 1013.41 1013.65 1013.57 1013.33 1013.33 1013.45 1013.57 1013.77 1014.53 1014.97 1015.93 1016.85 1016.65 1016.69 1016.85 1016.57 1016.85 1017.29 1017.29 1017.33 1017.53
1022.73 1022.57 1022.29 1021.93 1021.57 1021.17 1020.85 1020.53 1020.21 1019.85 1019.45 1019.09 1018.73 1018.21 1017.89 1017.41 1017.05 1016.77 1016.37 1015.97 1015.65 1015.29 1014.93 1014.61 1014.37 1014.21 1014.05 1014.01 1014.01 1013.93 1014.01 1014.01 1014.21 1014.13 1014.25 1014.17 1014.37 1014.17 1013.65 1013.37 1013.37 1013.41 1013.49 1013.57 1013.61 1013.45 1013.37 1013.49 1013.53 1013.77 1014.09 1014.61 1014.85 1015.41 1016.01 1016.13 1016.45 1016.33 1016.97 1016.97 1017.21 1017.41 1017.33
1022.85 1022.57 1022.29 1021.97 1021.57 1021.21 1020.89 1020.57 1020.25 1019.93 1019.57 1019.13 1018.69 1018.29 1017.93 1017.53 1017.17 1016.81 1016.45 1015.97 1015.65 1015.33 1015.01 1014.65 1014.37 1014.17 1014.05 1013.97 1013.93 1013.93 1013.93 1013.97 1014.05 1014.21 1014.41 1014.77 1014.53 1014.01 1013.77 1013.57 1013.37 1013.37 1013.45 1013.61 1013.61 1013.53 1013.45 1013.53 1013.69 1013.77 1013.97 1014.13 1014.25 1015.01 1015.21 1015.73 1016.09 1015.85 1016.73 1016.89 1016.81 1017.21 1017.37
1022.93 1022.65 1022.33 1022.05 1021.69 1021.37 1021.05 1020.69 1020.41 1020.05 1019.61 1019.17 1018.77 1018.41 1018.01 1017.61 1017.25 1016.93 1016.49 1016.17 1015.77 1015.41 1015.01 1014.69 1014.37 1014.17 1014.13 1014.09 1013.97 1013.85 1013.81 1013.89 1014.01 1014.09 1014.17 1014.57 1014.61 1014.21 1013.77 1013.73 1013.61 1013.37 1013.37 1013.61 1013.49 1013.41 1013.41 1013.49 1013.57 1013.69 1013.85 1013.89 1014.13 1014.45 1014.81 1015.09 1016.05 1015.73 1016.01 1016.77 1016.61 1016.89 1017.41
1022.97 1022.65 1022.41 1022.13 1021.85 1021.53 1021.13 1020.81 1020.49 1020.17 1019.73 1019.25 1018.85 1018.41 1018.05 1017.69 1017.41 1016.97 1016.49 1016.29 1015.93 1015.45 1015.13 1014.69 1014.49 1014.29 1014.13 1014.13 1014.05 1014.05 1014.01 1013.97 1013.97 1014.01 1013.97 1014.29 1014.57 1014.13 1013.81 1013.65 1013.45 1013.33 1013.21 1013.45 1013.45 1013.49 1013.37 1013.33 1013.41 1013.57 1013.69 1013.85 1014.05 1014.21 1014.53 1014.93 1015.61 1016.17 1016.01 1016.25 1016.53 1016.89 1017.17
1023.13 1022.81 1022.61 1022.29 1022.05 1021.69 1021.37 1021.01 1020.69 1020.29 1019.81 1019.45 1019.01 1018.57 1018.21 1017.89 1017.57 1017.05 1016.61 1016.45 1016.09 1015.61 1015.29 1015.01 1015.37 1015.01 1014.33 1014.29 1014.13 1014.05 1013.85 1013.89 1013.89 1013.89 1013.89 1014.13 1014.49 1014.37 1013.69 1013.61 1013.29 1013.17 1013.17 1013.41 1013.45 1013.37 1013.33 1013.37 1013.33 1013.45 1013.57 1013.73 1014.09 1014.21 1014.45 1014.73 1015.61 1016.21 1016.13 1016.05 1016.45 1016.69 1017.01
1023.33 1023.17 1022.93 1022.57 1022.33 1021.93 1021.61 1021.29 1020.89 1020.49 1020.13 1019.65 1019.21 1018.81 1018.53 1018.09 1017.65 1017.17 1016.77 1016.73 1016.33 1015.89 1015.69 1015.41 1015.09 1014.73 1014.53 1014.45 1014.45 1014.21 1014.09 1013.89 1013.85 1013.97 1013.97 1014.17 1014.61 1014.37 1013.81 1013.77 1013.49 1013.25 1013.25 1013.29 1013.29 1013.25 1013.17 1013.33 1013.29 1013.33 1013.49 1013.65 1013.93 1014.13 1014.21 1014.61 1015.33 1015.77 1016.29 1016.29 1016.49 1016.61 1017.09
1023.77 1023.53 1023.21 1022.85 1022.61 1022.21 1021.85 1021.45 1021.01 1020.69 1020.29 1019.89 1019.33 1019.01 1018.73 1018.29 1017.81 1017.33 1016.85 1016.65 1016.41 1016.13 1016.21 1016.09 1016.21 1015.85 1015.33 1014.69 1014.33 1014.05 1014.09 1013.97 1013.85 1013.89 1013.93 1014.09 1014.29 1014.33 1014.05 1013.81 1013.61 1013.41 1013.41 1013.37 1013.37 1013.29 1013.37 1013.33 1013.29 1013.41 1013.49 1013.61 1013.89 1014.09 1014.17 1014.33 1014.97 1015.69 1015.97 1016.21 1016.29 1016.73 1017.01
1024.01 1023.73 1023.41 1023.05 1022.77 1022.37 1021.97 1021.57 1021.13 1020.81 1020.41 1020.05 1019.61 1019.21 1018.77 1018.33 1017.97 1017.61 1017.21 1016.77 1016.57 1016.37 1016.29 1016.17 1016.17 1016.21 1015.69 1015.21 1014.77 1014.01 1013.69 1013.81 1013.85 1013.81 1013.85 1013.93 1014.25 1014.49 1014.13 1013.89 1013.69 1013.65 1013.61 1013.45 1013.45 1013.41 1013.45 1013.45 1013.45 1013.45 1013.57 1013.69 1013.85 1014.05 1014.13 1014.33 1014.57 1015.09 1015.61 1016.09 1016.37 1016.45 1016.73
1024.17 1023.85 1023.57 1023.21 1022.89 1022.45 1022.05 1021.65 1021.29 1020.89 1020.53 1020.17 1019.81 1019.41 1018.97 1018.57 1018.21 1017.81 1017.49 1017.13 1016.81 1016.65 1016.65 1016.73 1016.57 1016.57 1016.29 1015.61 1014.85 1014.25 1013.81 1013.77 1013.97 1013.85 1013.93 1013.93 1014.29 1014.57 1014.45 1014.21 1013.85 1013.77 1013.53 1013.53 1013.45 1013.45 1013.45 1013.57 1013.41 1013.49 1013.57 1013.61 1013.73 1013.89 1014.13 1014.37 1014.61 1014.93 1015.49 1015.89 1016.37 1016.21 1016.41
1024.29 1024.01 1023.69 1023.33 1023.01 1022.57 1022.17 1021.81 1021.41 1021.01 1020.69 1020.33 1019.97 1019.57 1019.25 1018.85 1018.53 1018.13 1017.61 1017.25 1016.93 1016.69 1016.81 1017.17 1017.05 1017.05 1016.73 1015.89 1014.93 1014.33 1014.09 1014.01 1013.93 1014.05 1014.01 1014.05 1014.41 1014.53 1014.49 1014.49 1014.29 1013.85 1013.65 1013.57 1013.57 1013.41 1013.37 1013.57 1013.53 1013.53 1013.65 1013.53 1013.73 1013.93 1014.25 1014.49 1014.77 1015.17 1015.45 1016.01 1016.33 1016.37 1016.37
1024.41 1024.13 1023.81 1023.49 1023.13 1022.77 1022.37 1022.01 1021.57 1021.21 1020.85 1020.53 1020.21 1019.81 1019.49 1019.13 1018.77 1018.41 1017.93 1017.57 1017.25 1017.33 1017.41 1017.69 1017.73 1017.57 1017.17 1016.17 1015.01 1014.49 1014.37 1014.49 1014.33 1014.17 1014.29 1014.37 1014.49 1014.57 1014.53 1014.45 1014.29 1014.01 1013.77 1013.57 1013.49 1013.45 1013.49 1013.61 1013.61 1013.69 1013.73 1013.69 1013.69 1013.97 1014.37 1014.61 1014.97 1015.29 1015.61 1015.97 1016.13 1016.05 1016.29
1024.49 1024.21 1023.97 1023.61 1023.29 1022.97 1022.57 1022.17 1021.85 1021.41 1021.05 1020.77 1020.49 1020.09 1019.77 1019.41 1019.01 1018.61 1018.25 1017.89 1017.73 1017.61 1017.85 1018.29 1018.33 1018.29 1017.81 1016.85 1015.53 1014.65 1014.85 1014.85 1014.73 1014.73 1014.77 1014.57 1014.77 1014.69 1014.61 1014.49 1014.29 1014.01 1013.73 1013.65 1013.49 1013.37 1013.53 1013.61 1013.49 1013.69 1013.69 1013.73 1013.73 1014.09 1014.33 1014.57 1014.89 1015.13 1015.41 1015.41 1015.57 1015.77 1015.97
1024.61 1024.33 1024.13 1023.81 1023.49 1023.13 1022.77 1022.45 1022.09 1021.69 1021.33 1021.01 1020.77 1020.45 1020.01 1019.65 1019.29 1018.93 1018.53 1018.25 1017.93 1017.93 1018.41 1019.13 1019.49 1019.37 1018.69 1017.77 1016.61 1015.33 1015.41 1015.37 1015.45 1015.33 1015.09 1014.89 1014.81 1014.69 1014.65 1014.49 1014.13 1013.85 1013.97 1014.21 1014.13 1014.01 1013.97 1013.97 1013.77 1013.69 1013.81 1013.85 1013.89 1014.09 1014.41 1014.57 1014.53 1014.61 1014.61 1014.93 1015.29 1015.49 1015.89
1024.77 1024.53 1024.33 1024.01 1023.73 1023.41 1023.01 1022.69 1022.33 1021.97 1021.65 1021.33 1021.05 1020.77 1020.37 1019.93 1019.61 1019.29 1018.97 1018.57 1018.33 1018.25 1019.01 1019.65 1020.01 1019.69 1019.21 1018.77 1017.57 1016.13 1015.73 1015.93 1015.97 1015.81 1015.41 1015.17 1015.13 1014.85 1014.69 1014.41 1014.25 1014.41 1014.41 1014.41 1014.41 1014.45 1014.45 1014.41 1014.41 1014.33 1014.21 1013.97 1013.93 1014.17 1014.41 1014.57 1014.37 1014.37 1014.57 1014.89 1015.17 1015.37 1015.77
1024.93 1024.73 1024.61 1024.29 1024.05 1023.65 1023.29 1022.97 1022.65 1022.33 1022.01 1021.73 1021.41 1021.01 1020.65 1020.25 1019.93 1019.65 1019.37 1019.05 1018.77 1018.57 1019.21 1020.13 1020.17 1019.73 1019.17 1018.73 1018.21 1016.85 1015.77 1015.81 1016.09 1016.09 1015.57 1015.33 1015.17 1014.93 1014.69 1014.45 1014.25 1014.49 1014.49 1014.57 1014.81 1014.81 1014.81 1014.77 1014.73 1014.57 1014.57 1014.65 1014.81 1014.73 1014.61 1014.53 1014.33 1014.33 1014.45 1014.65 1014.89 1015.37 1015.37
1025.21 1025.09 1024.85 1024.57 1024.37 1023.97 1023.65 1023.33 1023.05 1022.77 1022.41 1022.05 1021.73 1021.37 1021.01 1020.65 1020.29 1020.01 1019.77 1019.49 1019.09 1018.93 1019.49 1020.37 1020.33 1019.97 1019.41 1018.81 1018.41 1017.53 1015.93 1015.85 1015.97 1016.25 1016.09 1015.69 1015.25 1014.85 1014.69 1014.53 1014.25 1014.25 1014.25 1014.33 1014.41 1014.65 1014.81 1014.97 1014.97 1014.93 1014.81 1014.89 1014.97 1015.29 1015.37 1015.17 1014.69 1014.37 1014.45 1014.57 1014.85 1015.05 1015.09
1025.61 1025.45 1025.25 1024.97 1024.69 1024.29 1024.05 1023.85 1023.57 1023.25 1022.89 1022.53 1022.09 1021.73 1021.37 1021.05 1020.69 1020.41 1020.17 1019.77 1019.45 1019.25 1019.85 1020.49 1020.65 1020.25 1019.69 1019.13 1018.49 1017.77 1016.09 1016.05 1016.05 1016.17 1016.13 1015.97 1015.57 1015.05 1014.77 1014.61 1014.53 1014.33 1014.33 1014.77 1014.49 1014.33 1014.45 1014.77 1015.05 1015.09 1015.01 1015.09 1015.21 1015.33 1015.41 1015.49 1015.45 1015.17 1014.57 1014.33 1014.73 1015.01 1015.09
1026.09 1025.93 1025.61 1025.37 1025.09 1024.77 1024.53 1024.37 1024.09 1023.69 1023.33 1022.93 1022.53 1022.13 1021.77 1021.49 1021.13 1020.81 1020.53 1020.09 1019.89 1019.77 1020.17 1020.81 1020.89 1020.53 1020.01 1019.49 1018.77 1017.89 1016.37 1016.13 1016.25 1016.21 1016.05 1016.01 1015.81 1015.33 1014.89 1014.61 1014.41 1014.45 1014.53 1014.65 1014.53 1014.57 1014.53 1014.49 1014.53 1014.61 1014.57 1014.49 1014.53 1015.17 1015.41 1015.41 1015.37 1015.29 1015.17 1014.81 1014.65 1014.85 1014.93
1026.45 1026.17 1025.85 1025.61 1025.41 1025.09 1024.93 1024.57 1024.25 1023.89 1023.57 1023.21 1022.81 1022.41 1022.01 1021.73 1021.41 1021.05 1020.81 1020.69 1020.65 1020.41 1020.57 1021.13 1021.05 1020.77 1020.33 1019.77 1019.05 1017.81 1016.97 1016.49 1016.17 1016.33 1016.37 1016.29 1016.09 1015.61 1015.05 1014.81 1014.69 1014.49 1014.61 1014.69 1014.73 1014.85 1014.65 1014.65 1014.53 1014.45 1014.45 1014.57 1014.53 1014.53 1014.77 1015.01 1015.09 1015.09 1015.01 1015.01 1015.21 1015.25 1015.25
1026.77 1026.49 1026.17 1025.97 1025.73 1025.37 1025.13 1024.85 1024.65 1024.41 1023.97 1023.41 1023.01 1022.61 1022.21 1021.73 1021.41 1020.93 1021.01 1021.17 1021.21 1021.01 1020.77 1021.25 1021.29 1021.05 1020.65 1020.05 1019.33 1018.01 1017.65 1016.97 1016.41 1016.25 1016.53 1016.57 1016.41 1015.97 1015.33 1014.97 1014.77 1014.73 1014.69 1014.77 1015.21 1015.33 1015.09 1014.73 1014.61 1014.61 1014.69 1014.81 1014.93 1015.01 1015.49 1016.17 1016.29 1016.21 1016.05 1015.81 1015.69 1015.85 1016.01
1027.13 1026.85 1026.61 1026.37 1026.09 1025.81 1025.69 1025.49 1025.41 1025.09 1024.53 1023.93 1023.45 1022.97 1022.77 1022.33 1021.97 1021.61 1021.77 1021.77 1021.77 1021.45 1021.21 1021.33 1021.53 1021.37 1021.01 1020.49 1019.69 1018.73 1018.21 1017.57 1016.81 1016.41 1016.53 1016.69 1016.57 1016.33 1015.69 1015.29 1014.97 1014.73 1014.81 1014.89 1015.49 1015.69 1015.49 1015.29 1014.73 1014.77 1014.77 1014.89 1014.89 1015.05 1015.49 1016.01 1016.37 1016.33 1016.33 1016.53 1016.61 1016.65 1016.69
1027.41 1027.17 1026.89 1026.69 1026.53 1026.37 1026.29 1026.13 1026.05 1025.73 1025.25 1024.49 1023.85 1023.41 1023.01 1022.61 1022.37 1022.17 1022.21 1022.17 1022.13 1021.93 1021.61 1021.49 1021.65 1021.65 1021.37 1020.89 1020.25 1019.45 1018.81 1018.01 1017.37 1016.97 1016.69 1016.65 1016.69 1016.53 1016.17 1015.93 1015.77 1015.17 1014.85 1015.05 1015.69 1015.89 1015.81 1015.53 1015.01 1015.01 1015.01 1015.01 1015.01 1015.13 1015.41 1015.45 1015.61 1016.25 1016.57 1016.61 1016.73 1016.77 1016.81
1027.81 1027.49 1027.29 1027.05 1026.97 1026.81 1026.81 1026.69 1026.45 1026.17 1025.69 1024.97 1024.37 1023.65 1023.37 1022.85 1022.57 1022.21 1022.17 1022.13 1022.17 1022.09 1021.89 1021.57 1021.65 1021.93 1021.81 1021.41 1020.73 1019.89 1019.17 1018.65 1018.13 1017.57 1017.09 1016.77 1016.93 1016.93 1016.53 1015.97 1015.85 1015.89 1015.65 1015.37 1015.85 1016.05 1016.05 1015.89 1015.21 1015.25 1015.17 1015.13 1015.05 1015.09 1015.25 1015.21 1015.37 1015.57 1015.81 1015.93 1016.21 1016.41 1016.69
1027.93 1027.65 1027.37 1027.33 1027.29 1027.29 1027.21 1027.01 1026.85 1026.57 1026.13 1025.49 1025.05 1024.41 1023.89 1023.37 1022.93 1022.65 1022.33 1022.25 1022.29 1022.17 1022.13 1021.89 1021.89 1022.21 1022.17 1021.69 1021.29 1020.65 1019.81 1019.37 1018.89 1018.29 1017.33 1016.57 1017.01 1017.13 1016.89 1016.29 1015.65 1016.17 1016.37 1016.33 1016.29 1016.29 1016.29 1016.33 1015.65 1015.41 1015.21 1015.09 1015.09 1015.37 1015.45 1015.41 1015.37 1015.09 1015.25 1015.33 1015.69 1015.89 1016.09
1028.13 1027.85 1027.69 1027.69 1027.57 1027.53 1027.37 1027.25 1027.13 1026.93 1026.49 1025.93 1025.49 1024.97 1024.53 1023.93 1023.41 1022.97 1022.61 1022.25 1022.25 1022.29 1022.33 1022.33 1022.17 1022.33 1022.41 1022.05 1021.49 1021.05 1020.41 1019.89 1019.41 1018.89 1017.77 1016.77 1017.05 1017.37 1017.29 1017.01 1016.09 1016.61 1016.69 1016.73 1016.73 1016.61 1016.61 1016.53 1016.21 1015.69 1015.73 1015.81 1016.17 1016.21 1015.89 1015.53 1015.93 1015.73 1015.45 1015.65 1015.81 1015.85 1016.01
1028.33 1027.97 1027.93 1027.89 1027.73 1027.65 1027.57 1027.41 1027.33 1027.21 1026.85 1026.41 1025.93 1025.33 1024.77 1024.25 1023.85 1023.53 1023.05 1022.73 1022.69 1022.65 1022.53 1022.61 1022.65 1022.49 1022.57 1022.41 1021.93 1021.37 1020.89 1020.37 1019.89 1019.05 1017.61 1017.29 1017.53 1017.61 1017.65 1017.41 1016.77 1017.05 1017.21 1017.13 1017.09 1016.93 1016.85 1016.85 1016.73 1016.13 1016.73 1016.85 1016.81 1016.53 1015.93 1015.49 1015.57 1015.53 1015.49 1015.49 1015.33 1015.49 1015.65
1028.37 1028.17 1028.17 1027.85 1027.65 1027.65 1027.65 1027.49 1027.41 1027.37 1027.21 1026.81 1026.33 1025.73 1025.17 1024.97 1024.65 1024.21 1023.85 1023.45 1023.25 1023.05 1022.93 1022.77 1022.97 1022.97 1022.85 1022.65 1022.21 1021.57 1021.17 1020.61 1019.93 1018.93 1018.13 1018.05 1017.97 1017.85 1017.77 1017.81 1017.41 1017.61 1017.65 1017.53 1017.57 1017.41 1017.09 1017.09 1016.81 1016.93 1017.17 1016.97 1016.77 1016.57 1016.17 1015.29 1015.25 1015.21 1015.21 1015.21 1015.29 1015.49 1015.65
1028.69 1028.57 1028.05 1027.53 1027.37 1027.53 1027.69 1027.73 1027.69 1027.85 1027.65 1027.21 1026.73 1026.17 1025.89 1025.93 1025.69 1025.21 1024.65 1024.21 1023.85 1023.53 1023.37 1023.29 1023.21 1023.45 1023.29 1022.85 1022.33 1021.69 1021.17 1020.73 1020.29 1019.65 1018.69 1018.17 1018.25 1018.29 1018.37 1018.41 1018.33 1018.09 1017.77 1017.73 1017.85 1017.81 1017.41 1017.33 1017.21 1017.49 1017.25 1017.05 1016.77 1016.53 1015.81 1015.61 1015.41 1015.33 1015.41 1015.41 1015.53 1015.69 1015.69
Wind_Speed
11 10 11 10 10 10 11 12 10 11 12 12 11 11 9 11 7 9 11 9 9 12 14 12 9 8 8 8 8 7 6 5 6 6 6 5 6 5 5 6 6 7 7 7 9 4 6 7 3 2 5 4 3 2 2 4 6 6 6 5 6 6 6
9 9 9 9 9 10 11 11 11 12 12 12 13 12 11 11 10 7 8 8 10 10 7 11 14 10 8 9 10 8 7 7 6 7 5 6 6 6 5 7 7 7 6 6 6 7 5 6 7 7 7 5 4 3 2 3 4 5 6 6 6 6 6
9 9 9 10 10 10 11 12 11 11 11 11 12 13 13 13 12 11 10 11 10 9 8 7 11 13 8 8 11 11 9 8 7 7 7 6 6 6 7 6 7 5 6 5 6 5 6 4 4 9 9 10 8 5 3 3 4 5 6 5 6 6 6
12 10 10 11 11 11 11 12 12 11 11 12 12 11 13 14 13 12 11 11 12 11 12 10 8 8 12 8 9 8 9 10 9 8 8 8 6 6 8 7 7 6 6 6 6 5 6 6 5 7 9 10 8 8 5 3 3 4 5 5 5 5 5
11 10 11 11 12 12 12 12 11 11 12 12 12 12 12 15 12 11 12 12 11 11 11 10 8 6 8 7 7 6 7 10 10 9 7 7 7 6 7 7 7 5 5 6 5 5 6 6 4 6 8 7 7 5 6 4 4 4 5 6 5 5 5
10 10 10 11 11 11 11 12 12 12 12 13 12 12 13 15 12 12 13 12 11 11 12 11 10 8 4 6 6 7 7 9 10 9 7 7 7 6 6 6 6 6 5 5 4 4 5 1 1 5 6 8 6 7 6 5 4 4 4 5 5 5 6
10 10 10 11 11 10 11 11 12 12 12 13 13 12 13 13 12 13 13 13 13 13 13 12 12 9 5 7 7 8 8 5 9 11 8 8 7 8 7 6 6 6 4 5 5 5 4 5 5 4 7 5 7 7 6 7 5 6 5 4 5 5 6
10 10 10 10 10 11 10 11 12 12 12 13 12 11 13 13 14 13 13 13 13 13 13 12 11 11 10 8 9 11 7 4 6 9 8 8 7 8 8 7 7 6 4 3 4 5 6 5 5 6 7 8 7 7 6 6 6 6 6 5 5 5 5
10 9 9 9 10 9 10 11 12 12 12 12 11 12 13 13 13 14 14 14 14 14 13 13 12 10 11 10 10 8 4 2 6 8 8 8 7 7 7 7 7 6 5 5 4 4 4 5 5 4 7 7 9 8 8 7 6 5 8 6 6 5 6
11 11 10 12 11 11 11 11 11 12 12 11 11 11 12 13 13 14 14 14 14 13 14 13 13 12 11 9 8 8 5 3 3 6 8 5 6 8 8 7 6 6 5 4 4 4 4 5 5 5 7 8 6 5 8 8 7 7 8 7 6 7 6
10 11 11 12 11 11 12 11 11 11 12 11 11 11 12 13 13 14 14 14 13 14 14 13 12 12 11 9 8 7 5 3 4 2 1 3 9 9 8 9 7 6 5 4 4 4 4 4 5 6 6 6 5 5 5 5 6 6 7 7 6 7 7
10 10 11 11 11 12 13 12 12 12 12 12 12 12 12 12 13 14 14 14 14 14 14 13 12 11 10 8 8 7 5 5 4 5 4 6 8 10 9 8 7 7 5 5 4 4 4 4 4 5 5 5 4 5 5 3 6 6 7 8 6 8 8
12 12 12 12 12 13 13 13 13 13 12 12 12 13 12 13 14 14 14 14 15 14 14 13 13 12 10 8 8 7 6 6 6 6 3 2 6 9 9 8 8 7 6 5 5 4 4 3 3 4 4 4 4 4 4 4 4 6 6 7 7 9 10
14 13 14 13 13 13 13 13 13 12 12 13 13 13 13 14 14 15 16 15 16 15 15 14 11 13 12 10 9 8 8 7 7 6 1 2 3 10 9 8 8 8 6 6 5 5 4 4 4 4 4 4 5 5 5 5 5 7 6 6 7 7 9
13 13 14 13 14 13 13 13 13 13 13 13 13 13 14 12 13 15 15 16 16 16 15 17 18 14 15 9 10 5 7 8 8 7 2 3 3 9 8 8 9 6 5 7 5 6 4 4 4 5 4 5 5 6 6 5 6 7 8 7 7 7 8
12 13 13 11 13 13 12 12 12 12 13 12 13 13 13 14 15 15 15 14 15 14 17 15 12 13 14 14 11 7 6 7 8 7 5 5 6 7 9 8 7 4 4 6 6 5 4 4 4 4 4 4 5 5 6 5 5 6 8 8 7 8 8
12 12 12 11 13 13 12 12 12 12 12 12 13 13 14 14 14 15 15 15 14 15 15 15 16 14 16 14 14 13 9 7 8 7 5 4 1 4 9 7 6 4 5 5 5 5 4 4 4 3 3 4 5 6 5 4 5 5 6 8 8 7 8
11 12 12 11 13 13 13 12 12 13 13 13 14 13 13 14 13 14 14 15 15 13 13 16 17 16 14 14 15 12 10 8 5 7 3 4 0 4 6 8 7 7 6 5 5 4 4 4 4 4 3 4 4 5 4 5 5 4 6 7 7 6 7
11 12 12 12 13 13 12 13 13 12 13 14 14 13 14 13 13 14 15 14 14 14 14 16 17 16 16 15 15 13 9 8 5 4 4 4 1 3 5 6 8 8 7 6 5 5 3 4 4 4 4 3 4 4 4 5 5 4 5 6 6 7 7
11 11 11 12 11 12 13 13 14 13 13 14 14 14 14 15 13 14 14 14 14 15 14 16 17 17 17 17 16 13 9 8 7 2 4 3 1 3 5 6 7 7 8 6 5 4 4 4 4 5 4 4 4 5 5 5 5 6 6 7 7 6 6
10 11 11 11 12 12 12 13 13 13 13 13 14 14 14 14 13 13 14 13 14 12 14 17 18 18 17 17 15 14 10 9 6 5 3 3 1 3 4 6 7 7 7 7 5 5 3 3 3 4 4 4 4 5 5 6 7 7 8 7 6 6 5
10 11 12 12 12 13 13 13 13 13 13 13 12 14 14 14 14 14 15 14 14 12 13 15 16 16 16 16 15 12 10 9 8 6 3 4 4 5 5 5 6 4 6 8 10 9 8 8 4 3 4 4 5 5 5 6 7 7 6 5 6 5 6
11 11 12 12 12 13 12 13 13 14 14 14 14 14 14 14 13 14 14 15 13 11 11 15 22 26 21 15 14 10 7 7 6 5 3 4 3 5 5 7 1 8 8 9 9 8 8 7 8 6 4 2 4 5 6 7 6 5 6 6 6 6 6
11 12 12 12 12 13 13 12 13 14 14 14 14 14 14 14 13 13 14 14 13 11 11 15 24 24 24 24 15 12 7 6 4 6 1 0 1 2 3 5 2 5 5 5 6 6 6 6 6 7 7 7 8 4 4 7 6 6 6 6 6 6 5
12 12 12 13 13 13 13 13 13 14 14 15 14 13 14 14 14 13 13 14 13 13 12 20 25 24 25 25 22 13 7 6 6 5 4 3 2 2 2 3 2 2 2 2 3 4 5 5 4 3 4 7 8 9 7 4 3 6 6 5 6 5 4
13 12 13 13 13 13 13 14 14 14 15 14 14 14 14 14 14 14 14 14 13 13 12 22 22 24 24 25 24 18 8 8 6 6 5 5 4 3 1 1 2 2 4 3 3 1 2 4 4 4 4 4 6 8 7 7 6 6 3 5 5 5 4
12 13 13 13 13 13 14 14 14 13 13 14 14 15 15 15 14 14 14 14 13 13 14 19 22 24 25 25 24 18 9 9 8 8 7 6 5 4 2 1 2 3 3 2 0 0 0 1 4 4 4 4 4 5 4 4 3 3 5 2 2 5 5
12 13 13 13 13 13 14 13 14 13 13 13 14 14 14 14 13 13 14 14 13 13 11 19 21 24 25 25 25 16 10 10 7 7 7 6 6 7 4 1 1 1 3 2 3 4 0 2 2 2 3 3 3 5 3 2 1 1 3 4 2 0 1
12 13 13 13 14 14 14 15 16 15 14 13 13 12 13 12 13 13 14 14 14 14 12 17 20 23 25 25 23 12 10 10 8 6 6 5 6 6 6 3 2 2 1 2 5 6 8 3 3 3 4 4 4 4 5 4 3 4 5 6 5 5 6
12 13 12 13 14 15 15 16 15 14 15 15 14 14 14 14 14 14 15 14 14 14 13 16 19 23 24 25 21 13 12 10 9 7 6 6 5 7 6 6 4 2 2 3 5 3 5 9 1 2 4 4 4 5 5 4 5 7 5 7 8 8 9
12 12 12 13 14 14 14 13 14 14 14 15 15 14 13 12 13 12 13 13 14 14 14 15 19 22 25 24 22 13 10 10 10 10 8 7 6 7 7 10 9 5 3 5 6 2 6 7 1 1 3 4 5 5 5 5 5 5 6 8 9 8 8
11 11 12 13 13 14 14 13 13 13 13 13 14 13 14 13 13 12 13 13 15 16 14 16 19 21 24 24 21 14 12 10 10 10 8 5 5 6 7 6 5 7 8 6 8 3 5 8 2 1 2 3 4 4 5 4 5 6 6 6 6 7 6
11 11 12 13 13 13 12 12 14 14 13 13 13 13 14 13 14 13 13 13 13 14 15 16 19 19 22 23 23 16 10 11 11 11 9 7 7 7 8 7 1 4 6 5 4 3 5 10 6 2 1 2 3 4 3 2 3 1 5 4 5 6 6
10 11 12 11 12 12 12 12 13 13 13 13 14 14 15 14 14 13 13 13 13 14 14 17 18 20 22 24 24 20 11 12 11 9 9 8 8 8 8 8 6 7 3 4 3 3 4 9 11 3 6 6 6 4 6 3 4 3 4 5 5 5 5
9 9 11 11 11 12 12 12 12 13 12 13 15 15 15 14 13 13 13 13 13 13 16 18 17 20 22 23 23 24 15 13 13 10 9 9 8 8 7 8 7 8 5 2 2 4 6 8 11 4 6 4 3 5 4 3 4 5 4 5 5 4 5
9 9 10 11 11 12 12 12 12 12 13 13 14 14 14 14 14 14 13 12 13 14 16 15 18 19 23 23 23 22 20 16 17 12 10 10 10 9 6 7 8 13 9 2 2 4 7 5 7 6 3 2 2 4 8 2 3 4 4 4 5 5 5
10 9 10 11 11 12 12 12 11 11 12 13 12 13 12 12 13 14 15 14 14 14 15 14 15 19 22 23 22 22 20 18 18 12 10 10 10 8 8 7 7 10 5 4 3 3 7 8 6 3 2 2 4 8 2 4 3 4 4 5 5 6 6
Wind_Direction
20 14 13 11 11 7 6 4 358 1 358 352 351 342 324 322 315 322 319 314 303 304 308 288 266 267 269 264 249 250 254 255 260 264 279 279 277 271 248 247 244 249 244 235 262 197 190 158 147 113 124 102 85 55 95 112 106 103 94 85 88 83 70
24 21 17 16 15 8 12 7 6 3 2 0 357 357 345 335 333 332 312 313 310 306 290 293 288 275 277 286 270 248 240 246 248 260 265 268 261 263 259 244 241 246 240 237 233 247 261 168 151 165 152 129 122 95 54 85 100 96 91 78 75 87 94
26 23 19 17 14 10 11 9 4 3 359 357 356 355 354 350 347 336 326 320 312 296 281 279 287 289 262 269 286 271 250 249 244 250 250 258 267 266 263 264 250 243 245 227 227 226 227 260 191 176 163 162 158 139 129 131 119 116 109 107 107 98 92
21 20 16 15 10 10 9 6 4 2 1 357 353 351 351 350 345 342 333 327 318 312 303 293 283 284 281 266 262 284 293 260 256 251 249 245 251 261 263 257 257 241 244 226 220 203 224 212 207 165 160 181 155 141 139 123 123 123 109 104 98 94 92
21 17 15 13 8 6 5 5 0 359 1 355 352 349 350 347 345 340 336 329 326 321 313 301 287 272 285 283 274 281 285 292 272 252 251 254 250 253 252 257 258 254 241 244 235 226 206 219 210 140 176 161 147 136 132 160 178 145 122 112 106 108 107
19 17 12 11 7 3 2 360 359 358 355 353 350 346 347 345 344 340 338 334 331 325 318 313 298 287 254 249 240 250 259 264 261 254 249 246 250 253 256 249 254 250 230 245 240 228 234 4 154 204 145 169 163 130 150 167 171 158 138 137 139 137 118
18 15 16 10 7 3 1 358 358 354 352 350 344 343 340 343 342 341 336 334 330 328 324 321 315 307 274 237 223 232 230 242 283 273 255 256 259 258 259 262 253 254 234 228 224 214 212 209 216 195 149 161 142 144 155 194 178 171 152 137 134 135 125
17 14 15 8 4 0 1 354 356 350 347 344 343 340 339 339 341 339 338 333 334 331 328 325 324 313 298 252 248 248 223 172 267 282 265 259 259 255 245 249 258 255 243 230 223 219 222 221 200 195 160 173 151 153 169 198 183 213 149 152 150 142 120
19 15 10 7 359 356 354 351 351 348 345 341 341 340 339 338 340 340 338 338 335 333 328 326 324 321 313 301 281 263 240 164 235 262 278 274 274 276 263 247 251 255 242 216 228 221 216 205 222 190 181 192 164 167 183 185 191 175 153 153 150 139 139
15 13 6 1 358 354 352 348 348 346 344 345 340 338 338 341 344 343 339 339 339 334 332 330 330 327 318 301 282 272 254 213 242 255 258 285 326 302 277 267 255 256 253 236 216 215 198 196 200 191 197 197 204 189 180 185 186 169 166 167 160 158 150
5 4 359 356 352 351 352 350 350 348 349 345 342 341 340 342 345 343 340 341 339 339 338 334 334 334 331 318 300 281 254 209 218 229 159 283 280 268 260 250 246 247 247 222 221 196 195 188 187 195 200 209 222 212 204 205 172 168 158 173 171 155 152
2 359 356 355 352 354 354 353 352 347 344 345 345 343 340 344 345 344 342 345 342 341 341 338 338 339 336 327 312 291 258 237 234 228 211 199 239 263 266 260 253 249 234 233 229 199 193 184 195 192 199 204 208 218 215 185 173 151 161 170 162 152 154
359 358 356 357 356 357 356 354 351 345 344 344 346 342 344 345 348 344 346 350 344 344 344 343 345 339 337 329 321 304 291 277 260 247 219 214 272 263 256 247 244 244 233 226 225 213 201 195 202 201 202 199 196 202 193 187 171 151 164 165 154 156 160
3 3 2 2 1 359 357 354 351 345 343 345 344 345 345 347 346 347 347 354 350 347 347 350 349 337 335 334 319 310 294 272 259 263 234 106 286 281 271 259 248 233 230 230 228 216 203 199 199 203 199 193 189 194 193 173 151 154 146 149 156 160 158
3 359 359 358 358 355 351 349 346 342 341 341 341 344 347 345 345 346 349 356 353 351 357 353 353 346 345 338 321 297 296 277 264 253 159 97 297 282 279 257 249 239 226 235 227 227 207 205 213 199 193 196 189 190 190 186 163 172 149 157 159 154 155
360 358 358 357 355 350 349 346 347 343 344 340 343 347 349 346 346 348 348 354 354 354 3 359 356 343 341 338 324 303 272 287 276 248 171 162 226 283 289 261 251 247 236 244 239 229 214 219 211 211 202 192 193 187 180 194 173 177 158 156 159 161 167
360 360 357 357 353 350 350 348 348 347 348 343 345 345 346 347 347 347 348 350 355 0 360 4 359 351 340 333 327 317 310 276 257 239 206 151 112 286 276 273 262 272 262 246 225 210 215 222 216 203 195 185 188 181 178 187 198 178 170 153 169 173 169
0 359 358 355 353 350 350 350 348 350 351 348 350 345 346 348 346 347 349 354 351 3 7 5 358 352 341 329 325 324 316 310 254 227 147 85 23 288 308 301 282 250 237 246 223 211 203 212 215 201 200 182 183 169 168 187 198 169 175 159 164 178 165
358 357 354 353 351 350 349 350 348 350 349 348 350 351 349 349 348 345 346 352 353 1 14 7 1 354 343 333 332 337 332 321 258 216 129 124 164 280 291 301 294 267 241 232 223 228 224 229 227 213 214 200 161 159 168 179 178 174 161 143 165 169 171
353 353 351 350 348 348 348 349 347 347 347 348 350 350 351 349 349 346 347 350 359 6 11 8 4 354 347 338 339 352 351 351 304 175 85 79 29 296 297 288 287 278 248 234 233 234 226 242 233 223 213 201 173 153 174 173 169 174 161 155 174 175 173
350 354 349 348 348 347 347 348 346 345 345 348 349 349 349 349 350 350 352 351 2 7 20 9 5 354 348 345 339 357 5 9 8 43 35 63 1 326 324 300 283 272 245 237 248 220 212 230 226 227 199 207 170 170 179 166 174 173 166 170 175 174 177
348 352 350 348 349 348 348 348 345 345 345 347 348 348 347 349 351 353 353 356 360 15 26 15 5 352 347 346 340 347 2 5 4 352 11 32 5 351 313 283 269 272 55 50 42 37 32 16 328 237 186 212 188 176 179 186 182 179 175 175 168 164 163
351 353 352 351 350 348 348 348 346 346 346 347 347 348 347 349 351 354 353 357 0 15 29 16 359 353 352 351 340 338 6 5 349 327 352 24 360 340 319 295 45 68 68 60 55 47 35 19 358 357 339 244 202 191 188 196 187 174 166 172 173 165 171
351 355 352 351 350 349 350 347 348 346 345 346 346 347 349 350 352 353 352 357 357 9 25 12 2 355 351 351 351 333 352 5 351 308 333 292 328 323 310 287 201 119 113 96 68 66 51 32 11 351 357 8 18 16 227 203 183 178 171 181 157 173 179
354 355 353 352 351 349 350 349 350 346 345 346 346 345 350 352 352 356 356 355 355 4 25 18 4 356 351 350 349 337 341 7 2 342 329 301 278 281 320 280 235 161 168 104 138 132 104 70 32 16 37 33 34 59 49 25 227 178 170 180 164 182 177
354 355 354 352 350 350 352 352 351 347 346 344 343 347 348 351 356 357 359 355 355 2 26 21 3 357 352 350 345 336 345 10 356 347 341 321 325 330 318 263 209 201 116 121 222 228 152 136 110 105 100 122 85 64 50 45 29 1 299 184 169 170 189
355 354 353 353 352 352 354 352 349 347 344 344 345 346 347 351 355 355 359 356 358 2 25 16 5 359 355 350 345 332 335 3 4 355 351 341 333 330 299 261 195 174 146 180 50 181 230 167 164 161 167 183 156 122 122 93 20 358 344 321 228 174 166
355 354 354 355 355 355 355 353 353 353 348 346 348 348 349 348 352 354 360 2 1 353 25 18 6 359 355 351 343 331 353 339 358 358 353 340 327 327 321 295 290 241 136 180 63 1 246 156 136 140 132 131 168 168 134 120 146 227 203 211 222 308 102
358 355 357 358 357 359 358 359 359 356 352 350 351 348 351 347 352 355 5 3 1 356 5 19 7 2 355 352 344 345 346 340 341 354 355 347 327 321 324 316 217 227 171 121 75 4 335 333 146 142 128 120 106 93 62 51 14 2 11 20 41 54 63
359 357 359 359 0 1 1 2 2 355 354 354 354 356 356 352 353 356 5 2 3 356 357 10 10 3 358 354 353 352 346 336 339 354 11 356 339 324 321 336 332 227 214 133 98 351 326 311 160 147 137 129 120 114 107 111 91 51 58 87 87 84 80
357 359 2 3 2 3 3 5 4 359 357 354 357 356 353 355 355 358 1 359 6 355 356 5 12 7 359 355 353 348 342 344 343 350 351 18 3 339 329 327 319 317 237 125 122 117 296 289 239 153 150 166 153 124 113 118 115 91 93 86 90 94 92
358 1 4 5 3 4 5 5 4 4 0 357 358 359 359 358 357 359 3 1 10 2 359 0 12 10 1 356 356 351 348 345 346 345 338 4 27 347 343 325 332 331 358 99 129 131 294 304 310 155 146 191 172 151 127 122 124 127 132 134 124 125 120
3 5 7 7 8 8 6 6 8 5 3 3 1 360 2 1 2 3 4 7 8 5 3 1 4 9 2 354 355 354 352 351 347 337 333 360 23 8 357 342 253 119 50 79 107 93 329 328 329 86 226 165 178 126 138 118 32 154 153 148 124 115 116
4 8 13 9 10 10 10 9 9 8 3 4 4 3 2 3 3 4 4 5 11 6 7 1 1 2 2 355 353 356 350 349 344 333 323 358 22 13 358 348 354 81 46 98 118 81 23 331 330 351 39 53 33 0 304 154 141 283 168 148 140 139 138
7 11 15 11 12 13 12 13 12 9 3 1 1 4 5 4 356 359 1 5 6 4 3 7 4 357 359 355 350 350 353 347 342 331 345 14 6 8 356 346 342 19 0 98 133 105 49 359 326 3 57 61 359 324 290 128 164 182 187 189 186 170 164
17 16 14 12 14 15 14 13 14 10 2 359 359 360 4 2 357 355 357 1 3 2 2 360 13 2 354 352 347 344 346 347 346 355 0 12 360 356 357 342 346 355 338 24 90 69 66 353 291 76 118 99 311 296 278 191 127 165 175 171 163 153 150
23 17 13 14 16 17 16 13 15 12 4 0 359 1 5 2 358 359 360 360 1 1 0 0 1 3 353 349 344 342 344 349 349 352 341 19 7 3 351 352 338 333 11 76 99 76 63 33 62 77 127 140 225 257 264 114 160 123 139 139 144 145 152